Wind_Speed
19 17 16 16 14 13 13 14 14 14 14 13 13 13 13 12 12 12 11 10 9 9 9 9 9 9 9 9 8 7 7 6 6 6 6 5 5 5 5 4 4 4
20 17 16 17 17 16 14 15 16 15 15 15 14 15 14 13 12 12 11 10 9 8 8 9 8 8 8 8 7 6 6 6 6 6 6 5 5 5 4 4 4 4
21 19 18 18 18 18 16 16 16 15 15 15 15 15 15 14 13 12 11 10 9 9 8 8 8 8 7 7 7 6 6 6 6 6 6 6 6 6 5 5 4 4
22 21 20 18 18 18 17 17 16 15 16 15 15 15 15 15 14 13 12 11 10 9 8 8 8 8 7 7 7 6 6 6 6 6 6 6 6 6 6 6 5 4
25 22 21 19 18 17 17 17 16 15 16 15 14 15 15 15 14 13 12 11 10 9 8 8 7 7 7 6 6 6 6 5 5 5 5 5 4 4 4 4 4 4
26 24 22 21 19 18 17 17 15 15 14 13 13 13 13 13 12 12 12 11 10 9 8 7 5 5 5 4 5 5 5 5 4 4 3 2 1 1 2 2 2 2
28 25 22 22 21 18 17 16 14 13 13 11 11 10 10 11 10 10 10 10 9 8 7 7 5 4 3 3 3 3 3 4 4 4 3 3 3 3 2 1 2 2
29 25 24 23 22 20 19 18 17 15 13 13 12 11 10 10 9 9 10 9 9 9 8 8 7 6 5 5 5 4 4 5 5 5 5 5 5 4 4 4 4 3
29 26 26 25 24 23 22 22 21 18 17 16 14 13 12 11 10 9 9 9 10 10 10 9 9 8 7 7 6 6 6 6 7 7 7 7 6 6 6 6 5 5
29 27 27 27 26 25 24 24 22 20 20 18 16 15 14 13 12 11 10 10 10 11 11 10 9 8 7 6 6 7 7 8 8 9 9 9 9 8 8 7 7 7
29 27 27 28 29 27 25 23 20 20 21 20 19 19 17 15 15 14 14 14 14 13 12 11 10 9 9 8 8 8 9 9 9 9 10 10 11 11 10 10 9 9
28 27 26 27 28 27 25 21 20 23 23 22 22 21 19 18 18 17 17 17 17 17 16 14 13 12 12 11 10 11 11 11 10 10 11 11 12 12 13 12 12 12
24 26 26 26 27 27 26 22 23 26 25 24 24 22 21 20 19 18 19 19 19 18 18 17 16 15 15 14 14 16 16 15 13 13 13 13 13 14 14 14 14 14
20 22 23 24 26 27 25 24 25 27 25 23 23 21 21 21 19 19 19 19 20 19 19 18 18 18 17 17 19 20 19 18 17 16 16 16 16 16 16 16 16 16
17 18 19 21 23 25 24 25 26 26 24 23 22 20 20 21 22 22 22 22 23 23 22 22 22 22 21 22 23 23 21 20 20 20 19 19 18 18 18 18 18 17
17 17 17 18 20 21 21 21 22 23 23 23 21 20 20 22 22 23 23 23 22 21 21 22 22 23 24 25 25 24 22 21 21 21 21 21 21 20 21 21 20 19
15 15 14 14 15 16 16 16 18 19 19 18 17 17 18 18 19 19 19 17 16 16 16 17 18 19 21 22 21 21 21 22 23 23 23 23 23 23 23 22 22 21
12 12 12 11 11 11 12 12 13 13 14 14 14 14 14 14 14 15 15 14 14 13 13 13 14 14 16 17 17 17 18 20 22 23 23 24 24 24 24 24 24 24
12 12 12 12 12 12 11 11 12 12 12 12 12 11 11 11 12 12 12 12 12 11 10 11 12 13 14 15 16 17 17 18 19 21 23 24 25 25 26 26 26 26
13 13 12 12 13 13 12 12 12 12 12 11 11 11 11 11 11 12 12 12 11 10 10 11 12 13 14 14 15 16 17 18 19 20 21 23 25 26 27 28 28 27
13 13 13 14 14 14 14 13 12 12 12 12 11 11 11 11 11 12 13 12 12 11 11 11 11 11 12 12 13 14 15 17 19 19 20 21 24 25 26 27 27 27
12 12 14 16 17 16 16 15 15 15 15 14 14 13 13 13 13 14 14 13 13 12 12 12 12 11 11 11 12 12 13 14 16 16 18 20 22 25 26 26 26 25
12 12 13 15 16 15 15 14 14 14 14 13 13 12 12 13 13 13 13 12 12 12 12 12 12 12 12 12 12 12 12 12 12 12 13 17 21 24 25 24 23 21
12 12 13 14 15 14 13 11 9 9 9 9 8 8 8 9 11 13 13 12 11 11 12 13 13 14 14 14 14 14 13 13 12 11 11 16 20 22 22 21 19 17
11 12 12 13 13 13 12 10 8 8 8 7 7 6 6 8 10 12 13 14 13 13 13 13 14 14 15 16 16 16 15 14 14 12 13 17 20 22 22 21 18 16
8 10 10 10 10 11 11 11 12 12 11 9 9 10 10 11 12 13 14 15 15 15 14 14 14 15 16 17 17 17 16 15 14 14 15 17 21 22 21 19 17 17
Wind_Direction
193 188 199 200 194 189 175 164 161 156 153 146 138 137 140 142 144 145 145 142 139 135 126 120 116 111 109 105 102 103 105 112 118 117 119 123 124 124 128 133 135 134
198 196 207 205 198 193 179 169 168 165 162 155 144 137 137 140 144 147 149 148 145 141 133 128 125 119 113 108 101 97 97 104 108 107 111 115 116 119 122 118 115 119
199 201 214 215 204 197 185 173 170 170 169 166 156 144 138 140 143 145 149 150 147 145 140 135 133 128 119 111 103 95 90 90 93 98 102 103 105 108 106 103 101 103
199 200 214 221 211 203 194 182 175 174 176 174 166 154 146 143 144 144 146 147 147 144 140 136 134 131 125 118 110 99 93 88 86 90 90 89 91 92 95 98 96 91
200 199 209 218 215 210 203 193 186 185 183 179 173 165 157 151 147 146 146 146 146 142 139 136 132 132 133 128 124 118 113 109 105 100 91 86 82 75 78 81 77 73
202 200 205 212 214 215 211 202 197 197 195 192 185 176 168 161 156 152 150 149 147 145 142 140 135 138 141 143 144 144 143 140 140 136 129 127 128 73 41 38 32 32
206 202 201 206 211 215 215 208 206 209 210 211 209 202 190 181 174 168 165 162 158 155 153 153 156 160 165 175 178 183 189 191 190 184 185 196 207 215 232 266 281 286
207 203 201 204 210 213 214 212 213 216 218 222 226 225 214 201 194 188 185 183 179 179 181 183 189 195 202 209 212 218 224 231 233 223 219 222 222 219 226 243 252 244
204 205 205 206 211 213 213 211 211 215 221 225 228 228 222 215 211 209 206 203 200 201 204 205 206 207 212 220 227 234 238 245 252 250 245 243 239 232 233 248 257 253
205 206 206 207 210 211 211 208 206 211 220 226 230 231 229 227 225 227 229 228 226 225 223 223 222 219 219 222 231 243 246 248 253 256 256 257 257 252 247 251 259 265
208 208 209 210 210 210 210 209 207 211 217 224 230 233 234 235 234 233 236 240 243 244 245 246 243 238 235 233 238 250 254 255 255 257 259 261 263 263 263 262 262 265
211 212 214 213 211 210 209 212 217 217 217 221 227 232 236 237 237 238 242 246 249 251 253 254 252 249 250 253 259 264 265 264 261 262 265 267 267 269 270 270 269 268
212 213 215 215 216 213 210 216 222 217 215 220 225 231 237 238 241 245 248 252 255 257 257 257 256 254 255 263 270 270 267 265 263 263 266 268 269 269 270 270 270 270
216 214 216 221 223 219 217 224 226 221 223 227 228 230 233 237 245 250 252 255 258 259 260 261 260 258 258 266 273 270 263 259 259 260 262 264 265 265 266 268 269 271
218 214 216 223 225 224 226 229 230 229 231 233 235 237 236 240 247 251 253 257 259 261 262 261 260 259 260 267 274 273 267 261 259 259 260 261 260 260 260 262 266 270
218 216 219 224 226 227 227 225 226 229 230 233 241 245 244 245 249 251 253 256 258 260 260 259 258 258 260 265 270 274 273 269 266 264 264 263 260 257 256 257 261 266
207 209 214 220 220 220 221 221 224 229 233 238 243 242 241 242 245 248 250 252 255 258 258 258 258 258 260 263 266 271 272 270 269 269 269 266 260 256 255 256 258 262
182 186 191 197 200 201 204 208 213 219 225 229 230 230 230 232 236 240 243 245 249 252 257 263 265 263 261 261 261 265 268 269 270 271 271 268 262 258 257 258 260 259
169 173 178 183 184 183 185 189 194 198 203 210 217 222 225 228 233 236 238 244 248 254 265 273 273 270 265 260 258 258 263 269 271 271 271 268 263 260 259 259 259 255
178 181 188 191 189 188 189 191 194 197 201 208 217 224 228 234 240 244 248 255 262 270 279 280 277 272 266 262 259 259 261 265 266 268 267 263 260 259 257 255 253 250
190 192 198 200 197 197 197 198 202 205 208 215 221 226 230 235 242 251 258 262 268 275 280 281 279 273 269 270 272 271 268 263 261 263 263 258 256 256 251 246 244 243
200 201 203 202 202 204 208 213 220 222 222 225 228 231 236 242 248 254 258 263 268 270 272 276 278 276 278 284 288 287 280 268 260 261 261 258 253 248 240 233 233 238
209 210 211 209 207 210 217 223 221 217 218 221 223 227 235 241 246 250 253 259 264 265 267 273 277 280 284 289 292 294 290 280 271 268 264 257 248 240 233 227 229 237
222 226 230 228 224 225 228 227 219 217 221 220 220 229 235 240 247 249 251 254 258 262 266 272 278 282 284 286 289 292 294 292 289 284 268 250 238 232 230 229 231 237
218 220 227 232 236 239 237 238 250 263 260 247 249 263 268 267 264 259 256 257 257 258 261 268 275 279 281 283 285 288 292 294 293 284 265 248 241 237 235 235 237 240
213 210 215 222 229 234 237 248 265 272 272 272 278 284 286 286 282 273 265 261 259 259 260 264 269 272 275 279 280 281 283 286 286 279 267 256 248 242 238 240 247 250
Height
1528 1530 1533 1534 1535 1536 1536 1536 1536 1537 1538 1539 1539 1539 1539 1539 1540 1540 1541 1541 1541 1541 1542 1542 1542 1543 1543 1544 1544 1544 1544 1544 1544 1544 1544 1544 1544 1544 1544 1545 1545 1545
1528 1530 1533 1534 1535 1536 1537 1537 1538 1539 1539 1540 1539 1539 1539 1539 1540 1540 1541 1541 1541 1541 1542 1542 1542 1543 1544 1544 1544 1545 1545 1545 1545 1544 1545 1545 1545 1545 1545 1545 1545 1546
1528 1530 1532 1533 1534 1535 1536 1537 1539 1540 1540 1541 1540 1540 1539 1539 1540 1540 1541 1541 1542 1542 1542 1542 1543 1543 1544 1544 1545 1545 1545 1545 1545 1545 1545 1545 1546 1546 1546 1546 1546 1546
1526 1528 1530 1532 1533 1535 1536 1537 1538 1540 1541 1541 1541 1540 1540 1539 1540 1540 1541 1542 1542 1542 1542 1542 1543 1543 1544 1544 1545 1545 1546 1546 1546 1546 1546 1546 1546 1547 1547 1547 1547 1547
1524 1526 1528 1531 1533 1535 1535 1536 1537 1539 1540 1541 1541 1541 1540 1540 1540 1540 1541 1541 1542 1542 1542 1542 1543 1543 1544 1544 1544 1545 1546 1546 1546 1547 1547 1547 1547 1547 1547 1548 1548 1548
1522 1524 1528 1531 1534 1535 1535 1536 1537 1538 1540 1541 1541 1541 1541 1540 1540 1540 1540 1541 1541 1541 1542 1542 1543 1543 1543 1544 1544 1544 1545 1545 1546 1546 1547 1547 1547 1547 1547 1548 1548 1548
1521 1524 1527 1531 1534 1536 1536 1536 1537 1538 1539 1541 1541 1541 1541 1541 1540 1540 1540 1540 1540 1541 1541 1541 1542 1542 1542 1543 1543 1544 1544 1545 1545 1545 1546 1546 1547 1547 1547 1547 1548 1548
1521 1524 1527 1530 1533 1534 1535 1535 1536 1537 1538 1539 1540 1540 1540 1540 1540 1540 1540 1540 1540 1540 1539 1539 1540 1540 1540 1541 1542 1542 1543 1543 1544 1544 1545 1545 1546 1546 1546 1547 1547 1547
1521 1524 1526 1528 1530 1532 1532 1532 1533 1535 1536 1537 1538 1538 1539 1539 1539 1540 1540 1540 1539 1539 1539 1538 1539 1539 1539 1540 1540 1541 1542 1542 1543 1543 1543 1544 1544 1545 1545 1546 1546 1546
1521 1522 1523 1525 1527 1529 1529 1529 1530 1533 1534 1535 1536 1537 1537 1538 1538 1539 1539 1539 1539 1538 1538 1538 1538 1538 1539 1539 1539 1540 1540 1540 1541 1541 1542 1542 1543 1543 1544 1544 1544 1545
1520 1521 1522 1523 1525 1527 1527 1528 1530 1531 1532 1534 1535 1535 1536 1536 1536 1537 1537 1537 1537 1537 1537 1537 1537 1538 1537 1537 1537 1538 1538 1539 1539 1540 1540 1541 1541 1542 1542 1543 1543 1544
1518 1520 1520 1521 1524 1525 1525 1527 1530 1530 1529 1531 1532 1534 1535 1535 1534 1535 1535 1535 1535 1535 1535 1536 1536 1536 1536 1536 1536 1536 1536 1537 1537 1538 1539 1539 1540 1540 1541 1541 1542 1542
1516 1518 1519 1520 1521 1522 1523 1525 1527 1528 1528 1528 1529 1531 1532 1532 1532 1532 1533 1533 1534 1534 1533 1534 1534 1534 1534 1535 1535 1535 1535 1535 1536 1536 1537 1538 1538 1538 1539 1539 1539 1540
1514 1516 1517 1518 1520 1521 1522 1524 1525 1527 1527 1526 1526 1528 1529 1530 1530 1530 1530 1531 1532 1532 1531 1531 1531 1531 1532 1532 1532 1532 1533 1533 1534 1534 1535 1536 1536 1537 1537 1537 1538 1538
1513 1514 1515 1517 1518 1519 1521 1522 1524 1525 1525 1525 1524 1525 1527 1528 1528 1528 1528 1529 1529 1529 1530 1529 1529 1529 1530 1530 1530 1530 1531 1531 1532 1532 1532 1533 1534 1535 1535 1535 1536 1536
1512 1513 1514 1515 1516 1518 1519 1520 1521 1522 1523 1523 1523 1524 1525 1525 1526 1526 1526 1527 1527 1527 1528 1527 1527 1528 1528 1528 1528 1528 1528 1528 1529 1529 1530 1530 1531 1532 1532 1533 1534 1534
1511 1512 1513 1514 1515 1516 1517 1518 1519 1520 1520 1521 1522 1522 1523 1523 1523 1524 1524 1525 1525 1525 1525 1525 1526 1526 1526 1526 1526 1526 1526 1526 1526 1527 1527 1527 1528 1529 1529 1530 1531 1532
1510 1511 1512 1513 1514 1515 1516 1516 1517 1518 1518 1519 1519 1520 1521 1521 1522 1522 1523 1523 1523 1523 1523 1523 1523 1523 1523 1523 1523 1523 1524 1524 1524 1525 1525 1525 1525 1526 1527 1528 1528 1529
1510 1511 1512 1513 1514 1514 1515 1516 1516 1517 1517 1518 1518 1519 1519 1520 1520 1521 1521 1522 1522 1522 1522 1521 1521 1521 1521 1521 1521 1521 1521 1521 1522 1522 1522 1522 1523 1524 1525 1525 1526 1526
1509 1510 1511 1512 1513 1514 1514 1515 1516 1516 1517 1517 1518 1518 1518 1518 1519 1519 1519 1520 1520 1520 1520 1520 1520 1520 1519 1519 1519 1519 1519 1519 1519 1520 1520 1520 1521 1522 1523 1523 1524 1525
1509 1510 1510 1511 1512 1513 1514 1514 1515 1516 1516 1516 1517 1517 1517 1517 1517 1517 1517 1518 1518 1519 1519 1518 1518 1518 1517 1517 1517 1517 1517 1517 1517 1517 1517 1518 1519 1520 1521 1522 1523 1523
1508 1509 1510 1510 1511 1512 1513 1513 1514 1514 1515 1515 1515 1516 1516 1516 1516 1516 1516 1516 1517 1517 1517 1517 1516 1516 1516 1516 1516 1516 1515 1515 1515 1515 1515 1516 1517 1518 1519 1520 1521 1521
1508 1508 1509 1510 1510 1511 1512 1512 1513 1513 1513 1514 1514 1514 1514 1514 1514 1514 1514 1515 1515 1515 1515 1515 1515 1515 1514 1514 1514 1514 1514 1513 1513 1513 1513 1514 1515 1516 1517 1518 1519 1520
1507 1507 1508 1508 1509 1510 1510 1511 1511 1512 1512 1512 1513 1513 1513 1513 1513 1513 1513 1513 1513 1513 1514 1513 1513 1512 1512 1512 1512 1512 1512 1512 1511 1512 1512 1513 1514 1514 1515 1516 1517 1518
1505 1506 1506 1507 1507 1508 1509 1509 1510 1510 1510 1511 1511 1511 1511 1511 1511 1511 1511 1511 1511 1511 1511 1511 1511 1510 1510 1510 1510 1511 1511 1510 1510 1510 1511 1512 1512 1513 1514 1514 1515 1516
1504 1504 1505 1505 1506 1506 1507 1508 1508 1508 1508 1509 1509 1509 1509 1509 1508 1508 1508 1509 1509 1509 1509 1509 1509 1509 1509 1508 1509 1509 1509 1509 1509 1509 1510 1510 1511 1511 1512 1513 1514 1514